EW3359 Weather Reports


time (UTC)temp
F
wind
direction
speed
knots
gust
knots
rain 1hr
in
rain 24hr
in
rain mn
in
humidity
%
barometer
mb
20260507211535 55 294 0.0 0.0 0.00 0.00 0.00 68 1011.9
20260507210025 55 257 0.0 0.0 0.00 0.00 0.00 67 1012.0
20260507204524 56 257 0.0 0.0 0.00 0.00 0.00 66 1011.8
20260507203032 57 252 0.0 0.0 0.00 0.00 0.00 64 1011.5
20260507201523 56 252 0.0 0.0 0.00 0.00 0.00 64 1011.3
20260507200024 57 179 0.0 0.0 0.00 0.00 0.00 64 1011.1
20260507194528 58 178 0.0 0.9 0.00 0.00 0.00 61 1010.8
20260507193022 58 218 0.0 0.9 0.00 0.00 0.00 60 1010.5
20260507191523 59 218 0.0 0.9 0.00 0.00 0.00 58 1010.1
20260507190024 60 211 0.0 3.5 0.00 0.00 0.00 56 1009.8
20260507184520 60 261 0.0 4.3 0.00 0.00 0.00 55 1009.6
20260507183035 61 180 0.9 5.2 0.00 0.00 0.00 54 1009.2
20260507181520 61 252 0.0 6.1 0.00 0.00 0.00 54 1009.1
20260507180030 62 169 0.9 7.8 0.00 0.00 0.00 52 1008.9
20260507174520 63 197 0.9 5.2 0.00 0.00 0.00 51 1008.8
20260507173018 64 215 0.9 6.1 0.00 0.00 0.00 50 1008.7
20260507171518 64 168 1.7 7.8 0.00 0.00 0.00 49 1008.6
20260507170019 65 195 1.7 8.7 0.00 0.00 0.00 48 1008.5
20260507164517 66 183 1.7 7.8 0.00 0.00 0.00 46 1008.4
20260507163016 67 188 0.9 6.1 0.00 0.00 0.00 43 1008.5
20260507161516 68 175 1.7 7.0 0.00 0.00 0.00 42 1008.4
20260507160034 68 171 0.9 7.0 0.00 0.02 0.00 42 1008.3
20260507154516 69 257 0.0 5.2 0.00 0.02 0.00 41 1008.4
20260507153014 70 186 0.0 4.3 0.00 0.02 0.00 38 1008.4
20260507151514 70 223 0.0 4.3 0.00 0.02 0.00 40 1008.5
20260507150015 70 215 0.9 5.2 0.00 0.08 0.00 39 1008.6
20260507144519 69 155 0.0 5.2 0.00 0.08 0.00 39 1008.7
20260507143013 69 175 0.0 3.5 0.00 0.08 0.00 39 1008.8
20260507141516 68 226 0.0 3.5 0.00 0.08 0.00 40 1009.0
20260507140009 70 174 0.0 7.8 0.00 0.08 0.00 42 1009.2
20260507134506 70 339 0.9 6.1 0.00 0.08 0.00 38 1009.3
20260507133005 70 34 0.0 5.2 0.00 0.08 0.00 38 1009.6
20260507131504 69 175 0.0 5.2 0.00 0.08 0.00 41 1009.7
20260507130001 69 189 0.9 4.3 0.00 0.08 0.00 44 1009.8
20260507124635 68 175 0.9 4.3 0.00 0.08 0.00 43 1009.8
20260507123057 68 161 1.7 7.0 0.00 0.08 0.00 44 1010.1
20260507121556 67 115 0.0 5.2 0.00 0.08 0.00 42 1010.1
20260507120055 68 11 0.0 2.6 0.00 0.08 0.00 42 1010.3
20260507114610 67 171 0.0 2.6 0.00 0.08 0.00 46 1010.5
20260507113054 65 207 0.0 2.6 0.00 0.08 0.00 43 1010.6
20260507111548 65 249 0.9 6.1 0.00 0.08 0.00 49 1010.7
20260507110048 65 189 0.0 7.8 0.00 0.09 0.00 49 1010.9
20260507104551 65 167 0.9 5.2 0.00 0.09 0.00 51 1011.2
20260507103040 64 180 0.0 3.5 0.00 0.09 0.00 54 1011.4
20260507101541 63 182 1.7 5.2 0.00 0.09 0.00 57 1011.5
20260507100038 63 177 0.9 3.5 0.00 0.17 0.00 58 1011.8
20260507094534 61 87 0.0 4.3 0.00 0.17 0.00 60 1012.0
20260507093036 60 161 0.0 1.7 0.00 0.17 0.00 65 1012.0
20260507091538 59 170 0.0 5.2 0.00 0.17 0.00 64 1012.1
20260507090025 59 207 1.7 5.2 0.00 0.17 0.00 69 1012.1
20260507084526 58 150 0.9 4.3 0.00 0.17 0.00 70 1012.2
20260507083019 57 169 0.0 5.2 0.00 0.17 0.00 75 1012.3
20260507081517 56 173 0.9 4.3 0.00 0.17 0.00 75 1012.4
20260507080011 55 138 0.9 4.3 0.00 0.17 0.00 80 1012.5
20260507074507 54 146 0.0 2.6 0.00 0.17 0.00 84 1012.4
20260507073003 53 190 0.0 2.6 0.00 0.17 0.00 87 1012.7
20260507071559 51 171 0.0 0.0 0.00 0.17 0.00 90 1012.8
20260507070114 50 171 0.0 1.7 0.00 0.17 0.00 90 1012.9
20260507064605 50 192 0.0 0.0 0.00 0.17 0.00 91 1012.9
20260507063057 49 192 0.0 0.0 0.00 0.17 0.00 93 1012.7
20260507061550 49 192 0.0 0.0 0.00 0.17 0.00 93 1012.8
20260507060047 48 192 0.0 0.0 0.00 0.17 0.00 94 1012.6
20260507054544 48 345 0.0 0.0 0.00 0.17 0.00 94 1012.4
20260507053040 48 339 0.0 0.0 0.00 0.17 0.00 93 1012.4
20260507051536 48 341 0.0 0.0 0.00 0.17 0.00 93 1012.4
20260507050037 48 342 0.0 0.0 0.00 0.17 0.00 93 1012.3
20260507044531 48 342 0.0 0.0 0.00 0.17 0.00 93 1012.2
20260507043027 48 342 0.0 0.0 0.00 0.17 0.00 93 1012.0
20260507041526 48 342 0.0 0.0 0.00 0.17 0.00 93 1012.0
20260507040026 47 138 0.0 0.0 0.00 0.17 0.00 93 1012.0
20260507034533 48 138 0.0 0.0 0.00 0.17 0.00 93 1012.0
20260507033024 48 138 0.0 0.0 0.00 0.17 0.00 92 1012.0
20260507031524 48 138 0.0 0.0 0.00 0.17 0.00 92 1012.0
20260507030023 48 138 0.0 0.0 0.00 0.17 0.00 92 1012.0
20260507024527 48 137 0.0 0.0 0.00 0.17 0.00 92 1012.0
20260507023025 48 137 0.0 0.0 0.00 0.17 0.00 92 1011.9
20260507021521 48 137 0.0 0.0 0.00 0.17 0.00 92 1011.9
20260507020030 48 137 0.0 0.0 0.00 0.17 0.00 92 1011.7
20260507014518 48 137 0.0 0.0 0.00 0.17 0.00 92 1011.5
20260507013033 48 137 0.0 0.0 0.00 0.17 0.00 92 1011.2
20260507011516 48 137 0.0 0.0 0.00 0.17 0.00 93 1011.2
20260507010015 48 137 0.0 0.0 0.00 0.17 0.00 93 1011.2
20260507004514 48 137 0.0 0.0 0.00 0.17 0.00 93 1011.2
20260507003013 48 137 0.0 0.0 0.00 0.17 0.00 93 1011.2
20260507001513 48 137 0.0 0.0 0.00 0.17 0.00 92 1011.1
20260507000016 48 137 0.0 0.0 0.00 0.17 0.00 92 1010.7
20260506234518 48 137 0.0 0.0 0.00 0.17 0.00 92 1010.7
20260506233011 48 137 0.0 0.0 0.00 0.17 0.00 92 1010.9
20260506231508 49 137 0.0 0.0 0.00 0.17 0.00 93 1010.9
20260506230007 48 137 0.0 0.0 0.00 0.17 0.00 92 1010.9
20260506224509 49 137 0.0 0.0 0.00 0.17 0.00 92 1011.0
20260506223004 49 137 0.0 0.0 0.00 0.17 0.00 92 1011.0
20260506221504 49 137 0.0 0.0 0.00 0.17 0.00 93 1011.0
20260506220005 50 137 0.0 0.0 0.00 0.17 0.17 92 1010.9
20260506214602 49 137 0.0 0.0 0.00 0.17 0.17 92 1010.8
20260506213058 50 137 0.0 0.0 0.00 0.17 0.17 92 1010.7